Location: Unspecified
(0.0000°N, 0.0000°E)
Time: 00:20:38
(UTC+00:00)

Traac - Pass Details

Date: 19 December 2025
Orbit: 951 x 1102 km, 32.4° (Epoch: 19 January)

Event Time Altitude Azimuth Distance (km) Brightness Sun altitude
Exits shadow 03:23:57 35° 46° (NE) 1,647 9.2 -34.6°
Drops below altitude 10° 03:29:39 10° 98° (E) 2,912 11.2 -33.4°
Sets 03:32:40 0° 106° (ESE) 3,885 12.2 -32.7°
